Drummond Island, MI

1:28 AM EDT on August 31, 2016 (GMT -0400)
Drummond Island

Weather History for KDRM - May, 2013

Change the Weather History Date:

Tuesday, May 21, 2013

  Actual Average (KCIU) Record (KCIU)
Temperature  
Mean Temperature 54 °F -  
Max Temperature 57 °F 67 °F 81 °F (1980)
Min Temperature 50 °F 35 °F 27 °F (1983)
Degree Days  
Heating Degree Days 12    
Growing Degree Days 4 (Base 50)    
Moisture  
Dew Point 53 °F    
Average Humidity 98    
Maximum Humidity 100    
Minimum Humidity 91    
Precipitation  
Precipitation 0.00 in - - ()
Sea Level Pressure  
Sea Level Pressure 29.77 in    
Wind  
Wind Speed 8 mph (ENE)    
Max Wind Speed 14 mph    
Max Gust Speed 23 mph    
Visibility 5 miles    
Events Rain    
Averages and records for this station are not official NWS values.
T = Trace of Precipitation, MM = Missing Value Source: NWS Daily Summary

Daily Weather History Graph

Daily Weather History Graph

Search for Another Location

Airport or City:

Trip Planner

Search our weather history database for the weather conditions in past years. The results will help you decide how hot, cold, wet, or windy it might be!

Date:

Astronomy

May. 21, 2013 Rise Set
Actual Time 5:56 AM EDT 9:07 PM EDT
Civil Twilight 5:20 AM EDT 9:43 PM EDT
Nautical Twilight 4:33 AM EDT 10:30 PM EDT
Astronomical Twilight 3:36 AM EDT 11:28 PM EDT
Moon 5:09 PM EDT (5/21) 3:36 AM EDT (5/21)
Length of Visible Light 16h 23m
Length of Day
15h 11m
Waxing Gibbous, 84% of the Moon is Illuminated
May 21
Waxing Gibbous
May 25
Full
May 31
Last Quarter
Jun 8
New
Jun 16
First Quarter

Hourly Weather History & Observations

Time (EDT) Temp. Dew Point Humidity Pressure Visibility Wind Dir Wind Speed Gust Speed Precip Events Conditions
12:16 AM 54.5 °F 53.4 °F 96% 29.83 in 10.0 mi ENE 6.9 mph - N/A   Overcast
12:36 AM 54.5 °F 52.9 °F 94% 29.83 in 10.0 mi ENE 8.1 mph - N/A   Overcast
12:55 AM 54.1 °F 52.3 °F 94% 29.83 in 10.0 mi ENE 10.4 mph 16.1 mph N/A   Overcast
1:16 AM 53.8 °F 52.2 °F 94% 29.82 in 10.0 mi East 10.4 mph 21.9 mph N/A   Overcast
1:35 AM 53.6 °F 51.8 °F 94% 29.83 in 10.0 mi East 10.4 mph 18.4 mph N/A   Overcast
1:56 AM 52.7 °F 51.4 °F 95% 29.83 in 5.0 mi ENE 11.5 mph 18.4 mph N/A   Overcast
2:16 AM 52.0 °F 51.3 °F 97% 29.83 in 4.0 mi ENE 11.5 mph 18.4 mph N/A   Overcast
2:35 AM 51.8 °F 51.3 °F 98% 29.83 in 3.0 mi ENE 8.1 mph 17.3 mph N/A   Overcast
2:56 AM 51.3 °F 51.1 °F 99% 29.82 in 3.0 mi ENE 9.2 mph 20.7 mph N/A   Overcast
3:15 AM 51.1 °F 51.1 °F 100% 29.81 in 2.5 mi ENE 9.2 mph 18.4 mph N/A Rain Light Rain
3:36 AM 50.9 °F 50.9 °F 100% 29.81 in 2.5 mi East 10.4 mph 20.7 mph N/A Rain Light Rain
3:56 AM 50.9 °F 50.9 °F 100% 29.83 in 2.5 mi East 9.2 mph 17.3 mph N/A   Overcast
4:15 AM 50.9 °F 50.9 °F 100% 29.83 in 2.5 mi East 9.2 mph 17.3 mph N/A   Overcast
4:36 AM 50.9 °F 50.9 °F 100% 29.82 in 2.0 mi ENE 10.4 mph 20.7 mph N/A   Overcast
4:56 AM 50.9 °F 50.9 °F 100% 29.81 in 3.0 mi ENE 11.5 mph 18.4 mph N/A   Overcast
5:15 AM 50.9 °F 50.9 °F 100% 29.80 in 3.0 mi ENE 9.2 mph 19.6 mph N/A   Overcast
5:36 AM 50.9 °F 50.9 °F 100% 29.79 in 4.0 mi East 10.4 mph 19.6 mph N/A   Overcast
5:56 AM 50.9 °F 50.9 °F 100% 29.79 in 2.5 mi East 10.4 mph 18.4 mph N/A   Overcast
6:15 AM 50.9 °F 50.9 °F 100% 29.80 in 4.0 mi East 9.2 mph 17.3 mph N/A   Overcast
6:36 AM 50.9 °F 50.9 °F 100% 29.80 in 3.0 mi East 10.4 mph 20.7 mph N/A   Overcast
6:55 AM 50.9 °F 50.9 °F 100% 29.81 in 3.0 mi East 10.4 mph 18.4 mph N/A   Overcast
7:16 AM 50.9 °F 50.9 °F 100% 29.85 in 1.0 mi East 10.4 mph 16.1 mph N/A Rain Heavy Rain
7:36 AM 50.9 °F 50.9 °F 100% 29.80 in 7.0 mi ENE 10.4 mph 19.6 mph N/A Rain Rain
7:55 AM 51.1 °F 51.1 °F 100% 29.78 in 10.0 mi ENE 13.8 mph 23.0 mph N/A   Overcast
8:16 AM 51.3 °F 51.3 °F 100% 29.77 in 10.0 mi ENE 11.5 mph 20.7 mph N/A   Overcast
8:35 AM 51.1 °F 51.1 °F 100% 29.77 in 7.0 mi ENE 9.2 mph 18.4 mph N/A   Overcast
8:56 AM 51.1 °F 51.1 °F 100% 29.81 in 2.0 mi SE 5.8 mph 17.3 mph N/A Rain Heavy Rain
9:16 AM 51.1 °F 51.1 °F 100% 29.82 in 2.5 mi ENE 4.6 mph - N/A Rain Rain
9:35 AM 51.3 °F 51.3 °F 100% 29.79 in 5.0 mi East 3.5 mph - N/A Rain Light Rain
9:56 AM 51.4 °F 51.3 °F 99% 29.78 in 10.0 mi East 13.8 mph 21.9 mph N/A   Light Drizzle
10:16 AM 51.6 °F 51.4 °F 99% 29.78 in 7.0 mi East 10.4 mph 19.6 mph N/A Rain Light Rain
10:35 AM 51.6 °F 51.3 °F 99% 29.80 in 10.0 mi East 10.4 mph 19.6 mph N/A   Light Drizzle
10:56 AM 51.3 °F 51.1 °F 99% 29.79 in 3.0 mi East 8.1 mph 17.3 mph N/A Rain Rain
11:15 AM 51.3 °F 51.1 °F 99% 29.79 in 3.0 mi East 8.1 mph 19.6 mph N/A   Heavy Drizzle
11:36 AM 51.4 °F 51.3 °F 99% 29.80 in 3.0 mi East 5.8 mph - N/A Rain Light Rain
11:56 AM 51.8 °F 51.8 °F 100% 29.81 in 3.0 mi East 5.8 mph - N/A   Heavy Drizzle
12:15 PM 52.3 °F 52.3 °F 100% 29.80 in 4.0 mi East 5.8 mph - N/A Rain Rain
12:36 PM 54.3 °F 54.1 °F 99% 29.78 in 7.0 mi East 8.1 mph - N/A   Overcast
12:56 PM 54.5 °F 53.6 °F 97% 29.78 in 10.0 mi ENE 9.2 mph 18.4 mph N/A   Overcast
1:15 PM 54.7 °F 54.0 °F 97% 29.77 in 10.0 mi East 6.9 mph 17.3 mph N/A   Overcast
1:36 PM 54.5 °F 53.4 °F 96% 29.77 in 7.0 mi East 6.9 mph - N/A   Overcast
1:56 PM 54.0 °F 53.2 °F 97% 29.76 in 3.0 mi ENE 9.2 mph - N/A   Overcast
2:15 PM 54.9 °F 54.1 °F 97% 29.75 in 4.0 mi ENE 9.2 mph - N/A   Overcast
2:36 PM 54.3 °F 53.6 °F 97% 29.75 in 7.0 mi East 5.8 mph - N/A   Overcast
2:56 PM 54.5 °F 53.6 °F 97% 29.74 in 7.0 mi ENE 4.6 mph - N/A   Overcast
3:15 PM 54.5 °F 53.4 °F 96% 29.74 in 10.0 mi ENE 9.2 mph - N/A   Overcast
3:36 PM 54.9 °F 53.6 °F 96% 29.74 in 10.0 mi East 4.6 mph - N/A   Overcast
3:55 PM 55.4 °F 53.6 °F 94% 29.73 in 10.0 mi ENE 4.6 mph - N/A   Overcast
4:16 PM 55.8 °F 54.0 °F 94% 29.73 in 10.0 mi ENE 6.9 mph - N/A   Overcast
4:36 PM 56.3 °F 54.3 °F 93% 29.73 in 10.0 mi ENE 6.9 mph - N/A   Overcast
4:55 PM 56.7 °F 54.5 °F 92% 29.73 in 10.0 mi East 6.9 mph 16.1 mph N/A   Overcast
5:16 PM 57.2 °F 54.5 °F 91% 29.74 in 10.0 mi ENE 8.1 mph 18.4 mph N/A   Overcast
5:35 PM 57.6 °F 55.2 °F 92% 29.74 in 10.0 mi ENE 6.9 mph - N/A   Overcast
5:56 PM 57.6 °F 55.4 °F 92% 29.74 in 10.0 mi ENE 5.8 mph - N/A   Overcast
6:16 PM 56.8 °F 54.9 °F 93% 29.74 in 10.0 mi ENE 6.9 mph - N/A   Overcast
6:35 PM 56.7 °F 55.0 °F 94% 29.74 in 10.0 mi ENE 6.9 mph - N/A   Overcast
6:56 PM 56.1 °F 55.0 °F 96% 29.73 in 4.0 mi East 8.1 mph - N/A   Overcast
7:16 PM 55.2 °F 54.5 °F 97% 29.73 in 2.0 mi ENE 5.8 mph - N/A   Overcast
7:35 PM 55.2 °F 54.9 °F 99% 29.73 in 2.5 mi East 6.9 mph - N/A   Overcast
7:56 PM 55.4 °F 55.0 °F 99% 29.73 in 2.5 mi ENE 4.6 mph - N/A   Overcast
8:16 PM 55.6 °F 55.6 °F 100% 29.73 in 1.5 mi ENE 4.6 mph - N/A   Overcast
8:35 PM 55.0 °F 55.0 °F 100% 29.72 in 1.2 mi NE 4.6 mph - N/A   Overcast
8:56 PM 55.0 °F 55.0 °F 100% 29.71 in 1.2 mi NE 8.1 mph - N/A   Overcast
9:15 PM 55.0 °F 55.0 °F 100% 29.72 in 1.0 mi NE 4.6 mph - N/A   Overcast
9:36 PM 54.9 °F 54.9 °F 100% 29.70 in 0.8 mi ENE 6.9 mph - N/A   Overcast
9:56 PM 54.7 °F 54.7 °F 100% 29.71 in 1.0 mi NE 5.8 mph - N/A   Overcast
10:15 PM 54.7 °F 54.7 °F 100% 29.71 in 1.2 mi East 6.9 mph - N/A Rain Light Rain
10:36 PM 55.0 °F 55.0 °F 100% 29.72 in 1.8 mi ENE 4.6 mph - N/A Rain Rain
10:56 PM 55.0 °F 55.0 °F 100% 29.72 in 4.0 mi North 4.6 mph - N/A   Overcast
11:15 PM 54.3 °F 54.3 °F 100% 29.74 in 2.5 mi NNE 4.6 mph 19.6 mph N/A Rain Light Rain
11:36 PM 55.0 °F 55.0 °F 100% 29.75 in 3.0 mi NNW 3.5 mph - N/A   Overcast
11:56 PM 54.9 °F 54.9 °F 100% 29.74 in 5.0 mi NE 3.5 mph - N/A   Overcast